Regional Weather Roundup
Issued by NWS

Current Version | Previous Version | Text Only | Print | Product List | Glossary On
Versions: 1 2 3 4 5 6 7 8 9 10 11 12 13 14 15 16 17 18 19 20 21 22 23 24 25 26 27 28 29 30 31 32 33 34 35 36 37 38 39 40 41 42 43 44 45 46 47 48 49 50
000
ASHW40 PHFO 260512
RWRHI

WEATHER ROUNDUP FOR HAWAII
NATIONAL WEATHER SERVICE HONOLULU HI
700 PM HST MON JUL 25 2016

THIS IS AN AUTOMATED REPORT THAT HAS NOT BEEN QUALITY CONTROLLED.

NOTE..."FAIR" INDICATES FEW OR NO CLOUDS BELOW 12,000 FEET WITH NO
SIGNIFICANT WEATHER AND/OR OBSTRUCTIONS TO VISIBILITY.

* - THESE SITES REPORT LIMITED FIELDS

HIZ001>004-260600-
KAUAI-NIIHAU-

CITY           SKY/WX    TMP DP  RH WIND       PRES   REMARKS
LIHUE APT      PTCLDY    81  75  82 SE9       29.98R
PORT ALLEN*      N/A     82 N/A N/A SE8         N/A
POIPU*           N/A     84 N/A N/A SE1         N/A
PRINCEVILLE*     N/A     82 N/A N/A SE5G10      N/A
KOKOLE POINT*  NOT AVBL
MOLOAA DAIRY*    N/A     81  75  83 SE9G16      N/A
WAIMEA HTS*    NOT AVBL
PUU OPAE*      NOT AVBL
PUU LUA*       NOT AVBL
MAKAHA RIDGE*  NOT AVBL
$$

HIZ005>011-260600-
OAHU-

CITY           SKY/WX    TMP DP  RH WIND       PRES   REMARKS
HONOLULU       PTCLDY    79  71  76 NE12      29.96R
KALAELOA       PTCLDY    83  76  79 VRB3      29.97R HX  91
KANEOHE MCB    PTCLDY    80  74  81 E6        29.96R
WHEELER FIELD  FAIR      80  73  80 E7        30.00R
BELLOWS*       NOT AVBL
KAHUKU*        NOT AVBL
WHEELER*       NOT AVBL
WAIANAE HARBOR NOT AVBL
DILLINGHAM*      N/A     79  75  89 MISG        N/A
KAHUKU TRN*      N/A     79  75  89 NW5G13      N/A
KAWAILOA*        N/A     77  72  83 SE1         N/A
KII*             N/A     81  75  83 E12         N/A
MAKUA RANGE*     N/A     82  77  83 SE1         N/A  HX  91
OAHU FOREST NW NOT AVBL
SCHOFIELD BRK*   N/A     84  79  84 MISG        N/A  HX  96
SCHOFIELD S*   NOT AVBL
WAIANAE VLY*   NOT AVBL
KUAOKALA*      NOT AVBL
HONOULIUULI*   NOT AVBL
MOKUOLOE IS*   NOT AVBL
PALEHUA*       NOT AVBL
WAIAWA PHB*    NOT AVBL
$$

HIZ012>013-260600-
MOLOKAI-

CITY           SKY/WX    TMP DP  RH WIND       PRES   REMARKS
MOLOKAI AIRPT  CLEAR     85  72  65 W5        29.97R HX  91
KALAUPAPA      NOT AVBL
MAKAPULAPAI*   NOT AVBL
MOLOKAI 1*     NOT AVBL
PUU ALII*      NOT AVBL
$$

HIZ016-260600-
KAHOOLAWE-

CITY           SKY/WX    TMP DP  RH WIND       PRES   REMARKS
KAHOOLAWE*     NOT AVBL
HAKIOAWA*      NOT AVBL
HONOKANAIA*      N/A     84  71  65 E18G28    29.87S
KANELOA*         N/A     79  72  78 E17G31    30.03R
KEALIALALO*    NOT AVBL
LUA MAKIKA*    NOT AVBL
$$

HIZ014>015-260600-
LANAI-

CITY           SKY/WX    TMP DP  RH WIND       PRES   REMARKS
LANAI CITY     CLOUDY    76  72  87 NE7       30.04R
LANAI 1*       NOT AVBL
$$

HIZ017>028-260600-
MAUI-

CITY           SKY/WX    TMP DP  RH WIND       PRES   REMARKS
KAHULUI        PTCLDY    84  72  67 NE9       29.93R
KAPALUA-W MAUI NOT AVBL
HANA AIRPORT     N/A     77  72  83 SE6       30.02R
HANA*            N/A     81 N/A N/A SE6G12      N/A
HALEAKALA SUMM   N/A     52  18  25 SE32        N/A
MAALAEA BAY*   NOT AVBL
HALEAKALA*     NOT AVBL
KAUPO GAP*     NOT AVBL
KULA 1*          N/A    N/A N/A N/A E10G21      N/A
$$

HIZ023>026-260600-
BIG ISLAND OF HAWAII COAST AND LOWER SLOPES-

CITY           SKY/WX    TMP DP  RH WIND       PRES   REMARKS
KAILUA KONA    MOCLDY    84  75  74 SW7       29.93R HX  92
HILO           PTCLDY    79  72  79 SE7       29.99R
HONOKAA*         N/A     73 N/A N/A VRB1        N/A
KAWAIHAE MWT*    N/A     82 N/A N/A W7          N/A
KAWAIHAE*      NOT AVBL
SOUTH POINT*     N/A     75 N/A N/A N17G25      N/A
UPOLU AIRPORT*   N/A    N/A N/A N/A NE14G20     N/A
KAMUELA*       CLEAR     70  64  83 NE8       30.09S
HAKALAU*         N/A     59  49  69 S5          N/A
KALOKO-HONOKO* NOT AVBL
PALI 2*          N/A     66  66 100 SE5         N/A
KEALAKOMO*       N/A     81  72  74 E16G24      N/A
KAUPULEHU*     NOT AVBL
KAPAPALA*        N/A     73  70  90 NE3         N/A
LOWER KAHUKU*  NOT AVBL
PUHE CS*       NOT AVBL
PUHO CS*       NOT AVBL
PTA KEAMUKU*     N/A     70  64  83 CALM        N/A
WAIKOLOA*      NOT AVBL
$$

HIZ027>028-260600-
BIG ISLAND OF HAWAII INTERIOR AND SUMMMITS-

CITY           SKY/WX    TMP DP  RH WIND       PRES   REMARKS
BRADSHAW FIELD   N/A    N/A N/A N/A SE14        N/A
MK VISITOR CEN   N/A     55  18  22 E9          N/A
MAUNA KEA*       N/A     34  10  37 S17         N/A  WCI  23
MAUNA LOA*     NOT AVBL
MAUNA LOA 1*   NOT AVBL
PTA KIPUKA*      N/A     77  75  94 N3G12       N/A
PTA RANGE 17*    N/A     73  36  25 E12G21      N/A
PTA WEST*        N/A     66  63  88 N5G12       N/A
NENE CABIN*    NOT AVBL
AHUMOA*        NOT AVBL
PTA PORTABLE*  NOT AVBL
PUU MALI*        N/A    N/A N/A N/A SE17G29     N/A
$$

HIC003-260600-
NORTHWEST ISLANDS-

CITY           SKY/WX    TMP DP  RH WIND       PRES   REMARKS
MIDWAY ISLAND  PTSUNNY   81  72  74 E18       30.12S
MIDWAY NOS*    NOT AVBL
FRENCH FRIGATE NOT AVBL
$$

PHZ110>124-180-260600-
BUOY REPORTS

STATION/POSITION TIME  TEMP    WIND        PRES    WAVE   SWELL
                       AIR SEA DIR/SP/G            HT/PER HT/DIR
                 (UTC) (F)     (DEG/KT/KT) (MB)    (FT/S) (FT/D)
BUOY 51001       0400   80 81   60/ 14/ 17 1014.4F
BUOY 51101       0450   78 78   60/ 16/ 17 1014.3R   8/ 9   7/100
BUOY 51100       NOT AVBL
BUOY 51002       0450   81 83   90/  8/ 10 1012.0R   6/ 8   7
BUOY 51003       0450   82 83  100/ 10/ 10 1013.1R   5/ 9   5/ 40
BUOY 51004       0450   81 81   70/ 16/ 17 1013.9R   5/ 6   3/100
BARBERS PT BUOY  NOT AVBL
WAIMEA BAY BUOY  0404      82                N/A     4/ 8   2/ 40
KAILUA BAY BUOY  0411      80                N/A     5/10   2/ 70
LANAI BUOY       0415      83                N/A     3/12   2/180
BARBERS PT 2     NOT AVBL
PAUWELA MAUI     0409      80                N/A     6/ 9   2/ 70
HILO             0412      79                N/A     6/ 9   2/ 90
KANEOHE BAY BUOY 0406      79                N/A     4/ 7   2/ 50
HANALEI KAUAI    NOT AVBL
KAHULUI HARBOR   0400   81 82  320/ 12/ 24 1013.4
HONOLULU HARBOR  0400   85 80   60/  5/  7 1014.7
KILO NALU        NOT AVBL
HILO HARBOR      0400   84 79  120/  6/  9 1014.6
MOKUOLOE         0400   81 82  100/  7/ 10 1014.9R
NAWILIWILI       0400   81 80  150/  9/ 11 1014.3
WHOTS BUOY       NOT AVBL
BUOY 51028       NOT AVBL
$$

......................KEY........................................
  SKY/WX - SKY CONDITIONS/PRESENT WEATHER
  TMP    - TEMPERATURE IN FAHRENHEIT
  DWPT   - DEWPOINT IN FAHRENHEIT
  RH     - RELATIVE HUMIDITY IN PERCENT
  WIND   - DIRECTION AND SPEED /MPH FOR ISLANDS...KTS FOR BUOYS/
  PRES   - MEAN SEA LEVEL PRESSURE IN INCHES OF HG
  VSB    - VISIBILITY IN MILES
  HX     - HEAT INDEX
  WCI    - WIND CHILL INDEX
  VRB    - VARIABLE WIND DIRECTION
  N/A    - NOT AVAILABLE



USA.gov is the U.S. government's official web portal to all federal, state and local government web resources and services.